This is the latest recevied weather packets stored in our database for station/object W4SKW. If no packets are shown the sender has not sent any weather packets the latest 10 day(s).
| Time | Temp. | Humidity | Pressure | Rain* | Wind** | Luminosity | Snow |
|---|---|---|---|---|---|---|---|
| 1778040698 | 18.33° C | 78% | 1014.1 hPa | 0 mm | - | 0 W/m² | - |
| 1778040399 | 18.33° C | 78% | 1014.3 hPa | 0 mm | - | 0 W/m² | - |
| 1778040087 | 18.33° C | 76% | 1014.4 hPa | 0 mm | - | 0 W/m² | - |
| 1778039784 | 18.33° C | 76% | 1014.4 hPa | 0 mm | - | 0 W/m² | - |
| 1778039479 | 18.33° C | 76% | 1014.3 hPa | 0 mm | - | 0 W/m² | - |
| 1778039177 | 18.33° C | 75% | 1014.4 hPa | 0 mm | - | 0 W/m² | - |
| 1778038869 | 18.33° C | 75% | 1014.2 hPa | 0 mm | - | 0 W/m² | - |
| 1778038566 | 18.33° C | 74% | 1013.9 hPa | 0 mm | - | 0 W/m² | - |
| 1778038263 | 18.33° C | 75% | 1013.7 hPa | 0 mm | - | 0 W/m² | - |
| 1778037960 | 18.33° C | 75% | 1013.7 hPa | 0 mm | - | 0 W/m² | - |
| 1778037657 | 18.33° C | 76% | 1013.5 hPa | 0 mm | - | 0 W/m² | - |
| 1778037354 | 18.33° C | 75% | 1013.7 hPa | 0 mm | - | 0 W/m² | - |
| 1778037051 | 18.33° C | 75% | 1013.7 hPa | 0 mm | - | 0 W/m² | - |
| 1778036749 | 18.33° C | 76% | 1013.7 hPa | 0 mm | - | 0 W/m² | - |
| 1778036446 | 18.33° C | 74% | 1014.1 hPa | 0 mm | - | 0 W/m² | - |
| 1778036143 | 18.33° C | 76% | 1014.2 hPa | 0 mm | - | 0 W/m² | - |
| 1778035839 | 18.33° C | 76% | 1014.3 hPa | 0 mm | - | 0 W/m² | - |
| 1778035536 | 18.33° C | 75% | 1014.2 hPa | 0 mm | - | 0 W/m² | - |
| 1778035233 | 18.33° C | 74% | 1014.2 hPa | 0 mm | - | 0 W/m² | - |
| 1778034928 | 18.33° C | 75% | 1014.2 hPa | 0 mm | - | 0 W/m² | - |
| 1778034627 | 18.33° C | 74% | 1014.3 hPa | 0 mm | - | 0 W/m² | - |
| 1778034324 | 18.33° C | 71% | 1014.1 hPa | 0 mm | - | 0 W/m² | - |
| 1778034020 | 18.89° C | 72% | 1014.1 hPa | 0 mm | - | 0 W/m² | - |
| 1778033718 | 18.89° C | 72% | 1013.8 hPa | 0 mm | - | 0 W/m² | - |
| 1778033263 | 18.89° C | 73% | 1013.7 hPa | 0 mm | - | 0 W/m² | - |
* Rain latest hour (hover to see other rain measurements)
** Current wind speed in m/s (hover to see current wind gust speed)